Location: Unspecified
(0.0000°N, 0.0000°E)
Time: 11:34:55
(UTC+00:00)

ISS - Pass Details

Date: 18 May 2018
Orbit: 402 x 407 km, 51.6° (Epoch: 20 May)

Event Time Altitude Azimuth Distance (km) Brightness Sun altitude
Rises 19:27:20 0° 225° (SW) 2,319 0.3 -21.3°
Reaches altitude 10° 19:29:29 10° 232° (SW) 1,456 -0.7 -21.8°
Maximum altitude 19:32:36 44° 305° (NW) 570 -2.7 -22.6°
Enters shadow 19:33:17 37° 341° (NNW) 639 -2.6 -22.7°
